カタログに戻る

HULIANWANG DIGUI-133

運用中通信LEO
NORAD 67241·PAYLOAD·🇨🇳 China

打ち上げ Dec 25, 2025 から Wenchang Space Launch Site

Loading…

次のパス (今後24時間)

TLE

最新Source: Space-Track

元期: Sep 14, 2026, 03:34 UTC

1 67241U 25311F   26257.14929312 -.00000070  00000-0  11574-3 0  9994
2 67241  50.0098 156.7749 0000269 316.7972  43.2879 13.29327449 35178

AllMySatでHULIANWANG DIGUI-133をリアルタイム追跡

Download on the App Store